DW7639 Weather Reports


Display with metric or nautical units.
time (UTC)temp
F
wind
direction
speed
MPH
gust
MPH
rain 1hr
in
rain 24hr
in
rain mn
in
humidity
%
barometer
mb
20260504050517 36 230 0.0 0.0 0.00 0.00 0.00 84 1016.9
20260504045538 37 109 0.0 1.0 0.00 0.00 0.00 82 1016.9
20260504044517 37 82 0.0 1.0 0.00 0.00 0.00 82 1016.8
20260504043518 37 127 0.0 2.0 0.00 0.00 0.00 82 1016.8
20260504042538 37 152 0.0 1.0 0.00 0.00 0.00 83 1016.6
20260504041518 37 112 0.0 1.0 0.00 0.00 0.00 81 1016.6
20260504040518 37 114 0.0 1.0 0.00 0.00 0.00 81 1016.6
20260504035538 38 78 0.0 2.0 0.00 0.00 0.00 81 1016.5
20260504034518 38 28 0.0 1.0 0.00 0.00 0.00 79 1016.5
20260504033516 38 120 0.0 1.0 0.00 0.00 0.00 79 1016.5
20260504032516 38 107 0.0 1.0 0.00 0.00 0.00 79 1016.6
20260504031516 38 127 0.0 0.0 0.00 0.00 0.00 79 1016.6
20260504030516 38 108 0.0 0.0 0.00 0.00 0.00 77 1016.5
20260504025517 38 65 0.0 1.0 0.00 0.00 0.00 77 1016.8
20260504024537 39 58 0.0 0.0 0.00 0.00 0.00 75 1016.6
20260504023536 39 43 0.0 1.0 0.00 0.00 0.00 75 1016.6
20260504022537 40 81 0.0 1.0 0.00 0.00 0.00 74 1016.5
20260504021517 40 125 0.0 1.0 0.00 0.00 0.00 73 1016.5
20260504020517 41 121 0.0 1.0 0.00 0.00 0.00 72 1016.5
20260504015517 41 33 0.0 1.0 0.00 0.00 0.00 70 1016.3
20260504014518 42 118 0.0 1.0 0.00 0.00 0.00 69 1016.1
20260504013518 43 133 0.0 2.0 0.00 0.00 0.00 68 1015.9
20260504012518 43 120 0.0 1.0 0.00 0.00 0.00 65 1015.9
20260504011538 44 112 0.0 1.0 0.00 0.00 0.00 65 1015.8
20260504010518 45 121 0.0 0.0 0.00 0.00 0.00 62 1015.7
20260504005519 46 224 0.0 1.0 0.00 0.00 0.00 59 1015.5
20260504004516 47 118 0.0 2.0 0.00 0.00 0.00 58 1015.4
20260504003516 49 27 0.0 2.0 0.00 0.00 0.00 56 1015.3
20260504002536 50 124 0.0 1.0 0.00 0.00 0.00 53 1015.2
20260504001516 51 72 0.0 1.0 0.00 0.00 0.00 51 1015.1
20260504000516 52 120 0.0 1.0 0.00 0.00 0.00 47 1015.0
20260503235516 54 293 0.0 1.0 0.00 0.00 0.00 46 1015.0
20260503234519 55 203 0.0 1.0 0.00 0.00 0.00 43 1015.0
20260503233537 56 225 0.0 1.0 0.00 0.00 0.00 41 1015.0
20260503232517 57 131 1.0 4.0 0.00 0.00 0.00 37 1015.1
20260503231517 59 11 1.0 3.0 0.00 0.00 0.00 37 1015.0
20260503230517 61 23 1.0 3.0 0.00 0.00 0.00 32 1015.0
20260503225518 62 32 1.0 4.0 0.00 0.00 0.00 28 1015.0
20260503224518 61 289 1.0 3.0 0.00 0.00 0.00 29 1015.0
20260503223518 61 334 2.0 4.0 0.00 0.00 0.00 28 1015.0
20260503222518 61 332 1.0 4.0 0.00 0.00 0.00 29 1015.1
20260503221516 61 302 2.0 6.0 0.00 0.00 0.00 29 1015.2
20260503220536 61 322 1.0 3.0 0.00 0.00 0.00 29 1015.2
20260503215516 61 291 2.0 4.0 0.00 0.00 0.00 29 1015.2
20260503214516 61 331 1.0 3.0 0.00 0.00 0.00 30 1015.4
20260503213516 61 346 2.0 4.0 0.00 0.00 0.00 29 1015.4
20260503212556 61 327 2.0 4.0 0.00 0.00 0.00 28 1015.4
20260503211517 61 135 2.0 5.0 0.00 0.00 0.00 29 1015.4
20260503210536 61 172 2.0 6.0 0.00 0.00 0.00 29 1015.6
20260503205517 60 355 2.0 5.0 0.00 0.00 0.00 30 1015.5
20260503204517 60 145 2.0 5.0 0.00 0.00 0.00 29 1015.6
20260503203537 61 314 3.0 5.0 0.00 0.00 0.00 30 1015.8
20260503202517 61 353 2.0 4.0 0.00 0.00 0.00 32 1015.9
20260503201518 61 340 2.0 4.0 0.00 0.00 0.00 31 1016.1
20260503200518 61 127 2.0 7.0 0.00 0.00 0.00 32 1016.2
20260503195518 61 355 2.0 7.0 0.00 0.00 0.00 32 1016.3
20260503194521 60 348 2.0 5.0 0.00 0.00 0.00 31 1016.6
20260503193518 60 301 3.0 7.0 0.00 0.00 0.00 31 1016.7
20260503192519 60 312 2.0 7.0 0.00 0.00 0.00 31 1016.9
20260503191515 60 336 2.0 7.0 0.00 0.00 0.00 31 1017.0
20260503190516 60 1 2.0 8.0 0.00 0.00 0.00 31 1017.2
20260503185515 59 8 2.0 6.0 0.00 0.00 0.00 32 1017.3
20260503184516 59 288 3.0 9.0 0.00 0.00 0.00 32 1017.3
20260503183516 60 345 3.0 5.0 0.00 0.00 0.00 33 1017.6
20260503182542 58 23 2.0 7.0 0.00 0.00 0.00 33 1017.8
20260503181517 58 348 3.0 6.0 0.00 0.00 0.00 33 1017.8
20260503180516 58 20 3.0 9.0 0.00 0.00 0.00 34 1018.0
20260503175557 58 334 2.0 7.0 0.00 0.00 0.00 35 1018.2
20260503174517 57 15 2.0 10.0 0.00 0.00 0.00 34 1018.1
20260503173517 56 339 4.0 7.0 0.00 0.00 0.00 34 1018.2
20260503172518 56 344 3.0 8.0 0.00 0.00 0.00 33 1018.4
20260503171518 57 333 3.0 8.0 0.00 0.00 0.00 32 1018.6
20260503170518 56 39 1.0 5.0 0.00 0.00 0.00 35 1018.7
20260503150517 49 177 2.0 6.0 0.00 0.00 0.00 42 1019.6
20260503130542 43 27 2.0 5.0 0.00 0.00 0.00 57 1019.5
20260503110518 36 57 1.0 4.0 0.00 0.00 0.00 76 1017.9
20260503081518 32 170 0.0 3.0 0.00 0.00 0.00 93 1016.2
20260503080518 32 131 0.0 1.0 0.00 0.00 0.00 93 1016.1
20260503072536 32 107 0.0 2.0 0.00 0.00 0.00 93 1016.0
20260503071516 32 47 0.0 2.0 0.00 0.00 0.00 93 1015.9
20260503070516 32 112 0.0 2.0 0.00 0.00 0.00 93 1015.8